Location: Rio Negrinho
(26.2394°S, 49.4999°W)
Time: 00:55:15
(UTC+00:00)

NOAA 6 - Pass Details

Date: 07 June 2020
Orbit: 772 x 787 km, 98.7° (Epoch: 13 July)

Event Time Altitude Azimuth Distance (km) Brightness Sun altitude
Rises 08:40:45 0° 3° (N) 3,248 7.5 -17.5°
Reaches altitude 10° 08:43:06 10° 359° (N) 2,325 6.7 -17.0°
Maximum altitude 08:48:07 55° 281° (W) 933 4.1 -16.0°
Drops below altitude 10° 08:53:11 10° 203° (SSW) 2,344 6.1 -14.9°
Enters shadow 08:53:29 - 202° (SSW) 2,455 6.2 -14.8°
